Location: Ambatotampy
(18.8181°S, 47.6186°E)
Time: 23:51:29
(UTC+00:00)

ATLAS CENTAUR R/B - Pass Details

Date: 21 January 2021
Orbit: 471 x 674 km, 64.6° (Epoch: 24 February)

Event Time Altitude Azimuth Distance (km) Brightness Sun altitude
Rises 00:41:19 0° 196° (SSW) 2,863 5.2 -23.5°
Reaches altitude 10° 00:43:44 10° 190° (S) 1,918 4.3 -23.0°
Maximum altitude 00:47:52 45° 116° (ESE) 768 2.4 -22.2°
Drops below altitude 10° 00:51:42 10° 43° (NE) 1,777 4.0 -21.4°
Sets 00:53:52 0° 36° (NE) 2,627 4.9 -21.0°
